Theta_e
313 313 314 314 314 313 314 314 315 315 314 318 323 320 315 317 320 320 317 315 316 314 311 309 308 307 306 305 304 304 303 303 302 301 301 301 302 302 302 302 302 301 302 302 302 303 303 303 303 303 304 305 305 306 307 308 308 309 310 310 311 311 312 312 313 313 313 313 314 318 320 321 321 321 322 324 326 327 327 328 329 329 329 329 329 329 327
313 313 313 313 313 313 313 313 313 314 314 315 316 316 315 317 319 317 315 314 313 311 309 308 306 306 305 304 304 303 303 302 301 301 300 300 300 301 300 300 300 301 301 301 301 301 301 302 302 302 303 303 304 305 306 306 307 307 308 309 310 310 311 311 311 312 312 313 313 315 319 321 321 321 321 322 324 325 326 327 328 328 329 329 329 329 328
314 313 313 313 313 313 313 312 312 313 314 314 314 315 315 315 315 313 312 312 310 308 307 306 305 304 304 303 303 302 302 301 301 300 300 299 300 300 299 299 300 300 300 300 300 301 301 301 301 301 302 302 303 304 304 305 306 306 307 308 309 309 310 310 311 311 311 312 312 313 315 319 321 321 320 321 322 323 324 325 327 327 328 329 329 329 328
316 313 313 313 313 313 313 313 312 312 313 313 313 312 312 313 313 312 311 312 310 307 306 305 304 303 303 302 302 301 301 300 300 300 300 299 299 299 299 299 299 300 300 300 300 300 301 301 301 301 302 302 302 303 303 304 305 306 307 307 308 308 309 309 310 310 310 311 312 312 312 315 318 320 321 321 322 323 324 325 325 326 326 327 328 328 328
316 313 313 314 315 316 316 313 311 311 312 311 311 311 311 312 312 312 313 311 308 306 305 304 303 303 302 301 301 301 300 300 300 299 299 299 299 299 299 299 299 299 300 300 300 300 300 301 301 301 301 302 302 302 303 303 304 305 306 307 307 307 308 308 309 309 310 310 310 311 311 312 314 317 320 321 322 323 324 324 324 325 325 326 326 326 327
316 314 313 314 316 318 316 310 309 310 310 310 310 310 310 310 310 310 309 307 305 305 304 302 302 302 301 301 300 300 300 299 299 299 299 299 299 299 299 299 299 299 299 300 300 300 300 301 301 301 301 301 302 302 303 303 304 304 304 305 306 306 307 307 308 308 309 309 309 310 310 311 312 314 316 319 320 322 323 323 324 325 325 325 325 326 326
316 314 314 317 317 315 311 308 308 309 308 308 308 308 308 308 308 307 307 305 304 303 302 301 301 301 300 300 299 299 299 299 300 300 300 299 299 299 299 299 299 300 300 300 300 300 300 300 300 301 301 302 302 302 303 303 303 303 304 304 304 305 306 306 307 307 307 308 308 308 309 310 311 311 313 315 317 318 319 321 322 323 324 325 325 325 325
315 314 315 316 315 310 308 308 308 308 308 309 309 308 307 306 306 306 305 304 302 302 301 301 300 300 299 299 299 299 299 299 300 300 300 300 300 300 300 300 300 300 300 300 300 299 299 299 300 301 301 301 302 302 302 303 303 303 303 304 304 304 305 305 306 306 307 307 307 307 308 309 309 310 310 311 313 314 316 317 319 320 322 323 324 325 325
313 314 313 312 311 310 310 309 308 309 309 310 310 310 308 306 306 305 303 302 302 302 301 300 299 299 300 300 299 299 299 299 299 299 299 299 299 300 300 300 300 300 300 300 300 299 299 299 300 300 301 301 301 301 302 302 302 302 303 303 303 303 304 305 306 306 306 306 306 306 307 307 308 308 308 308 309 311 312 314 315 317 319 321 322 323 324
311 312 312 312 313 314 311 309 309 309 310 309 308 310 309 306 305 304 303 302 302 301 301 300 299 301 302 301 300 299 299 299 299 299 299 299 299 299 300 300 300 300 300 300 300 299 298 299 299 300 300 301 301 301 301 301 301 301 302 302 303 303 303 304 305 306 306 306 306 306 306 306 306 306 306 306 306 307 309 310 311 312 314 316 318 319 321
310 312 313 312 313 312 310 309 309 309 309 308 308 311 311 307 304 304 303 302 302 301 301 301 301 304 304 301 299 299 299 299 299 299 299 299 299 299 299 299 299 299 299 300 300 299 299 299 299 299 299 300 300 301 301 301 301 301 301 301 302 303 303 303 304 305 306 306 306 305 305 305 305 305 305 305 305 305 307 308 307 308 310 312 313 314 316
309 310 310 310 310 309 308 309 309 308 308 307 309 313 313 307 304 304 303 302 302 301 301 302 303 304 304 301 299 299 298 299 299 299 298 298 298 298 299 299 299 300 300 300 300 299 299 299 299 299 299 299 299 300 300 301 301 301 301 301 301 302 303 303 303 304 305 305 305 305 305 304 304 305 304 304 305 305 306 306 306 306 307 309 311 311 311
309 309 310 309 308 308 308 308 308 308 308 309 310 312 310 306 305 304 303 302 302 302 302 303 303 303 302 301 299 298 298 299 298 298 298 298 298 298 299 299 299 299 300 300 299 299 299 299 299 299 299 299 299 299 299 300 300 300 301 301 301 301 302 302 302 303 304 304 304 304 304 304 304 304 304 304 304 305 305 306 307 307 307 308 310 310 310
307 308 309 309 308 307 307 307 307 308 310 310 310 308 306 305 305 304 303 303 302 302 303 303 302 301 300 299 299 299 299 298 298 298 298 299 299 299 299 299 299 299 299 299 299 299 299 299 299 299 299 299 299 299 299 299 299 299 300 301 301 300 301 301 301 302 302 303 303 304 304 304 304 304 303 303 304 304 304 305 306 306 307 307 308 309 310
305 307 308 310 310 307 307 308 308 309 310 309 306 304 304 306 305 304 303 303 302 303 303 302 300 300 299 299 299 299 299 298 298 298 299 299 299 299 299 299 299 299 299 299 299 299 299 299 299 299 299 299 299 299 299 299 299 299 300 300 301 300 300 300 300 300 301 301 302 303 303 303 303 303 303 303 303 304 304 304 304 305 305 305 306 309 310
306 308 308 308 307 305 306 308 308 307 307 305 304 304 304 305 304 304 304 303 302 303 303 301 300 299 299 299 299 299 299 299 298 299 299 299 299 299 299 299 299 299 299 299 299 299 299 299 299 299 298 298 298 299 299 299 299 299 300 300 300 300 300 300 300 300 300 300 300 301 302 302 302 303 303 303 303 303 303 303 304 304 304 304 305 307 308
305 307 306 304 304 303 304 305 305 304 304 304 304 304 304 303 304 304 303 302 302 303 302 300 300 299 299 299 299 299 299 299 299 299 299 299 299 299 299 299 298 298 298 298 298 298 298 299 299 298 298 298 298 298 299 299 299 299 299 299 299 299 300 300 300 300 300 300 300 300 300 301 301 301 302 302 302 302 302 302 303 303 303 304 304 304 305
304 304 304 303 303 303 303 303 303 303 303 303 303 304 303 303 303 303 303 303 303 303 302 300 299 300 300 299 299 299 299 299 299 299 299 299 299 299 298 298 298 298 298 297 297 298 298 298 299 298 298 298 298 298 298 299 299 299 299 299 299 299 299 299 299 300 300 300 300 299 299 299 300 300 300 300 300 301 300 300 300 301 302 303 303 303 304
305 305 304 302 302 302 302 302 302 302 302 302 302 302 302 302 302 303 303 303 302 302 301 300 300 300 300 299 299 299 299 299 299 298 298 298 297 297 297 297 297 297 297 297 297 297 298 298 298 298 298 298 298 298 298 298 299 299 299 299 299 299 299 298 298 299 299 300 300 300 300 299 299 299 299 299 299 299 299 299 299 299 300 301 301 302 302
305 304 303 302 302 302 301 302 302 301 301 301 301 301 302 302 302 303 302 302 301 301 300 300 300 300 299 300 300 299 299 298 298 297 297 296 296 295 295 295 294 295 295 296 297 297 297 297 297 297 297 297 298 298 298 298 298 298 298 298 298 298 298 298 298 298 299 299 299 300 300 300 300 299 299 299 299 298 299 298 298 298 298 298 299 299 300
304 303 302 302 302 301 301 301 301 301 301 301 301 302 302 301 302 301 301 301 300 300 300 300 300 300 299 299 298 297 297 296 296 295 295 295 295 295 294 294 293 292 292 294 296 297 297 297 297 297 297 297 297 297 297 297 298 298 298 298 298 298 298 298 298 298 298 298 299 299 299 299 300 299 299 299 299 299 298 298 297 297 297 297 297 297 298
304 303 303 303 303 302 301 301 301 301 301 301 301 301 301 300 300 300 300 300 300 299 300 299 299 298 297 297 296 296 296 296 295 295 296 296 295 295 294 293 293 291 290 292 294 296 296 297 296 296 296 297 297 297 297 297 297 298 298 298 298 297 297 298 298 298 298 298 298 299 299 299 299 299 299 299 299 299 298 298 297 297 297 297 296 296 297
305 304 303 303 303 302 301 301 301 301 301 301 301 300 300 300 300 300 300 299 299 299 299 298 297 296 296 296 296 296 296 296 296 296 295 295 294 294 293 293 292 290 290 290 292 294 295 295 295 295 296 297 297 297 297 297 297 297 298 298 298 297 297 297 298 298 298 298 298 298 299 299 299 299 299 299 299 298 298 298 297 297 297 296 296 296 297
304 303 302 302 302 302 301 301 301 301 301 301 300 300 300 300 300 300 299 299 298 298 297 297 296 296 296 296 296 296 296 296 296 296 295 294 293 293 293 292 291 290 290 291 292 293 294 294 295 296 295 295 295 296 297 297 297 297 297 298 298 298 297 297 298 297 297 297 297 297 298 298 299 299 299 299 299 298 298 298 297 297 297 297 296 296 297
303 302 301 301 301 301 301 301 301 301 300 300 299 299 299 299 299 298 297 297 296 296 296 296 296 296 296 296 296 296 296 296 296 295 295 294 293 293 293 292 291 291 291 292 293 293 294 295 296 296 295 294 294 296 297 297 297 297 297 298 298 298 297 297 297 297 296 296 296 296 296 297 298 298 299 299 299 299 298 298 297 297 297 297 296 297 297
302 301 301 301 301 301 301 301 301 300 299 298 297 297 297 297 297 297 296 296 296 296 297 297 297 297 297 297 297 297 296 296 296 295 294 294 293 293 292 292 292 292 293 293 293 294 295 295 295 295 294 293 294 296 297 297 297 296 296 297 298 298 297 296 296 297 297 296 296 295 295 295 296 297 298 298 299 299 299 298 297 297 297 297 297 297 298
301 301 301 301 301 301 300 300 299 298 297 296 296 297 297 296 296 296 296 297 296 297 297 297 297 297 297 297 297 297 296 296 296 295 295 294 293 292 292 292 292 293 293 293 293 293 293 293 293 293 292 293 294 296 296 296 296 296 296 296 298 298 297 296 296 297 296 296 296 295 295 295 295 295 296 297 298 298 298 298 297 297 297 297 297 297 298
301 301 301 301 301 300 299 298 297 297 296 296 296 296 296 296 297 297 297 297 297 297 297 297 297 297 297 297 297 297 296 296 296 296 295 293 293 292 292 292 292 293 293 293 293 293 293 293 292 292 292 292 294 295 296 296 296 296 296 297 298 298 297 296 297 297 296 296 296 295 295 295 295 294 295 296 297 298 298 298 297 297 297 297 297 297 298
300 300 301 301 300 299 297 297 296 297 297 297 297 297 297 297 297 297 297 297 297 297 297 297 297 297 297 297 297 297 297 296 297 297 296 294 293 293 292 292 293 293 294 294 294 294 295 294 293 292 291 291 293 295 295 296 296 296 296 297 297 298 298 297 297 297 296 296 296 296 295 295 295 294 294 295 296 297 297 298 297 297 297 297 297 297 297
299 299 299 299 298 297 297 297 297 297 297 297 297 297 297 297 297 297 297 297 297 297 297 297 297 297 298 298 297 297 297 297 297 297 296 295 294 294 293 293 293 294 295 295 295 295 295 295 294 293 291 291 293 295 295 295 296 296 296 297 297 297 297 298 298 297 297 297 297 296 295 295 295 294 294 294 296 297 297 297 297 297 297 296 296 296 296
298 298 297 297 297 297 297 297 297 297 297 297 297 297 297 297 297 297 297 297 298 298 298 298 298 298 298 298 298 298 298 298 297 297 297 295 295 294 294 293 294 294 294 294 294 295 295 295 295 294 292 292 294 295 295 295 296 296 296 296 297 297 297 297 297 297 297 297 297 296 296 295 295 295 294 294 295 296 297 296 297 297 297 296 296 296 296
298 298 297 297 297 297 297 297 297 297 297 297 298 298 298 298 298 298 298 298 298 298 298 298 298 298 298 298 298 298 298 298 298 297 296 296 296 296 295 294 294 294 294 294 295 295 295 295 295 294 292 292 293 295 295 295 295 296 296 296 297 297 297 297 297 297 297 298 297 296 296 295 295 295 294 294 294 295 296 296 296 296 296 295 295 296 296
299 299 299 298 298 298 298 298 298 298 298 298 298 298 298 298 298 298 298 299 298 298 298 299 299 299 299 299 299 298 298 298 298 297 296 296 297 297 297 296 295 295 295 296 296 296 296 295 296 295 293 292 293 294 295 295 295 296 296 296 296 297 296 296 297 297 297 298 297 296 295 295 295 295 295 294 293 293 294 295 295 295 295 295 295 295 295
299 299 299 298 298 298 298 298 298 298 299 299 299 299 299 299 299 299 299 299 299 299 299 299 299 299 299 299 299 299 298 298 298 298 297 296 297 297 297 297 296 295 295 296 296 297 297 296 296 295 294 293 293 293 294 295 296 296 296 296 297 296 296 296 296 296 297 297 297 296 296 295 295 295 295 294 293 293 293 293 294 294 294 294 295 295 295
299 299 299 299 299 299 299 299 299 299 299 299 299 299 299 299 299 299 299 299 299 299 299 300 300 299 299 299 299 299 299 298 298 298 297 296 297 297 297 297 296 296 296 296 297 297 297 297 297 296 294 293 293 293 292 293 294 294 295 295 295 294 294 295 296 296 296 297 297 297 296 295 295 295 295 294 294 293 292 292 293 293 294 294 295 295 296
299 299 299 299 299 299 299 299 299 299 299 299 299 299 299 299 299 299 299 299 300 300 300 300 300 299 300 299 299 299 299 298 298 298 297 296 297 297 297 297 297 297 297 297 297 297 298 297 297 296 295 293 293 293 292 292 292 292 292 292 291 291 292 295 296 296 295 296 297 297 296 296 295 295 295 294 294 293 293 292 292 293 293 294 294 294 294
299 299 299 299 299 299 299 299 299 299 299 300 299 299 299 299 299 299 298 299 299 300 299 299 299 299 299 299 299 299 298 298 297 297 297 297 297 297 297 297 297 297 297 297 297 297 298 297 297 297 296 294 292 292 292 292 293 292 292 292 291 290 291 294 296 295 295 296 297 297 296 296 296 295 295 295 294 294 293 293 292 292 292 293 293 293 293
299 299 299 299 299 299 299 299 299 299 300 299 299 299 299 299 298 298 298 298 299 299 299 298 298 298 298 298 298 298 297 297 297 297 297 297 297 297 297 297 297 297 297 298 297 297 298 298 297 297 296 294 293 293 293 292 292 292 292 292 292 290 290 291 294 295 295 296 296 296 296 296 296 296 295 295 295 294 293 293 292 292 292 292 292 293 293
299 299 300 299 300 300 300 300 300 300 299 299 299 299 299 298 298 298 298 298 298 298 298 298 298 298 298 298 298 298 298 298 298 298 298 298 298 298 297 298 298 297 297 298 298 298 298 298 298 298 297 295 294 294 293 292 292 292 292 291 291 290 289 288 290 293 295 296 296 296 296 295 295 295 295 295 295 294 294 293 293 293 293 292 292 292 293
299 300 300 300 300 300 300 300 300 299 299 299 299 299 299 298 298 298 299 298 298 298 298 298 298 298 298 298 298 298 298 298 298 298 298 298 298 298 298 298 298 298 298 298 298 298 298 298 298 298 297 296 294 294 293 293 293 293 292 292 291 290 289 288 288 291 294 296 296 296 296 296 295 295 295 295 295 295 294 294 293 293 293 292 292 292 292
300 300 300 300 300 300 300 300 300 299 299 299 299 299 299 298 298 298 298 298 299 298 298 298 298 298 298 298 298 298 298 298 298 298 298 298 298 298 298 298 298 298 298 298 298 298 298 298 298 298 297 296 294 294 293 294 294 293 293 293 293 292 291 289 288 289 292 294 296 296 296 295 295 295 295 295 295 295 295 294 294 293 293 293 293 292 292
300 300 300 300 300 300 300 300 299 299 299 299 299 299 299 298 298 298 298 298 298 298 298 298 298 298 298 298 298 298 298 298 298 298 298 298 298 298 298 298 298 298 298 298 297 297 297 297 297 297 297 296 295 294 294 294 294 294 293 293 293 293 292 290 288 288 289 292 294 296 295 295 294 295 295 295 295 295 295 295 294 294 294 293 293 293 292
300 300 300 300 300 300 300 300 299 299 299 299 299 299 299 298 298 298 298 298 298 298 298 298 298 298 298 298 298 298 298 298 298 298 298 298 298 298 298 298 298 298 297 297 297 297 297 297 297 297 296 295 295 295 295 295 294 294 294 294 293 293 293 291 289 288 288 289 292 294 294 294 294 294 294 295 295 295 295 295 294 294 294 294 293 293 293
301 301 301 301 301 300 300 299 299 299 299 299 298 299 299 298 298 298 298 298 298 298 298 298 298 298 299 299 299 299 299 298 298 298 298 298 298 299 298 298 298 298 297 297 297 297 297 296 296 296 296 295 295 295 295 295 295 295 295 294 294 293 293 292 290 288 288 289 291 291 292 293 294 294 294 295 295 295 295 294 294 294 294 294 293 293 293
301 301 301 301 300 300 299 299 299 299 299 298 298 299 299 298 299 298 298 298 298 298 298 298 299 299 299 299 299 299 299 299 299 299 298 298 299 298 298 298 298 298 297 297 297 297 297 296 296 295 295 295 295 295 296 295 295 295 295 295 294 293 293 293 291 290 289 290 291 291 292 293 294 294 295 295 295 295 294 294 294 294 294 294 294 293 292
301 300 300 300 299 299 299 299 299 299 298 298 298 299 299 299 298 298 298 298 298 298 298 298 298 298 299 299 298 298 298 298 299 299 299 298 298 298 298 298 298 297 297 297 297 297 297 296 296 296 295 295 295 296 296 295 295 295 295 295 294 293 293 293 293 291 291 290 291 292 292 292 294 295 295 295 295 295 294 294 294 294 293 294 294 293 292
300 299 299 299 299 299 299 298 298 298 298 298 298 299 299 298 298 298 298 298 298 298 297 297 297 298 298 298 298 298 298 298 298 298 298 298 298 298 297 297 297 297 297 297 297 297 297 297 296 296 296 296 296 296 295 295 295 294 294 294 294 293 293 293 293 293 292 291 291 292 293 293 294 295 295 295 294 294 294 294 294 294 293 293 293 293 292
299 299 299 299 299 299 298 298 298 298 298 298 298 298 298 298 298 298 298 298 298 298 298 297 297 298 298 298 298 298 298 298 298 298 297 297 296 296 296 296 296 296 296 296 296 296 296 296 296 296 296 296 296 296 295 295 295 295 295 295 294 294 293 293 293 293 292 291 291 291 293 294 294 294 294 294 294 294 294 294 294 294 293 293 293 293 293
299 299 299 298 299 298 298 298 298 298 298 298 298 298 298 298 298 298 298 298 298 298 297 297 298 298 298 297 297 298 298 297 297 297 297 296 294 294 294 294 295 294 295 295 296 296 296 296 296 296 296 296 296 296 295 295 295 295 295 295 295 294 293 293 293 293 293 292 291 291 292 293 294 293 293 293 293 294 294 294 294 294 294 294 294 294 293
299 299 299 299 299 299 298 298 298 298 298 297 297 297 297 297 298 298 298 298 297 297 297 297 297 297 297 297 297 297 297 297 297 296 295 294 294 293 293 293 293 293 294 294 295 296 296 296 296 296 296 296 296 296 295 295 295 295 295 295 295 294 293 293 293 293 293 293 292 291 291 291 292 292 292 293 293 294 294 294 294 294 294 294 294 294 293
299 299 299 299 299 299 298 298 298 298 298 297 297 297 297 297 298 298 298 297 296 296 296 297 297 297 297 296 296 296 296 295 295 294 294 294 293 293 292 292 292 292 292 293 293 293 294 294 294 294 294 294 294 294 294 294 294 294 295 295 295 294 293 292 293 292 292 292 293 292 291 290 291 292 292 293 293 293 294 294 294 294 294 294 294 293 293
299 299 299 299 298 298 298 298 298 298 297 297 297 297 297 297 298 297 297 297 296 296 296 296 296 296 296 295 295 294 294 294 293 293 293 293 292 292 292 292 292 292 291 291 291 291 292 292 292 292 292 292 291 291 292 292 292 293 294 294 294 293 292 292 292 292 292 292 292 292 292 291 291 291 291 292 291 291 292 293 293 294 293 293 294 293 293
Wind_Speed
10 9 10 10 12 12 11 10 9 8 7 5 6 4 2 1 2 4 11 17 14 11 11 10 9 9 9 9 11 13 13 12 11 12 17 20 20 20 20 20 20 21 21 22 22 23 24 25 26 27 26 26 26 26 25 26 26 26 26 25 25 25 25 26 27 28 28 28 25 18 13 12 12 14 16 18 21 22 22 23 23 22 22 22 23 25 26
12 10 9 10 13 14 14 14 12 11 11 12 12 10 7 7 9 12 17 17 11 9 9 10 12 12 12 12 12 13 13 11 11 14 19 20 20 20 19 20 21 21 21 22 23 24 25 25 26 26 26 26 26 25 25 25 26 26 25 25 26 26 27 27 28 29 29 29 29 23 15 12 12 13 15 16 19 21 22 23 23 23 23 23 24 26 27
9 9 10 11 13 16 16 15 12 11 11 12 12 11 10 12 13 15 18 16 10 7 10 13 14 13 12 12 13 13 12 11 12 15 18 18 19 19 19 19 20 21 22 22 22 23 23 24 24 24 25 25 25 25 25 25 25 25 25 25 26 26 27 28 28 29 30 31 31 28 21 14 12 13 13 14 16 18 21 21 20 21 22 23 25 27 27
5 5 9 10 11 14 15 13 13 11 9 8 8 7 6 7 13 16 14 11 7 8 12 14 13 13 13 13 13 12 11 10 12 14 15 16 18 19 18 19 19 19 20 21 21 21 22 22 23 24 24 25 26 26 26 25 25 24 24 25 26 27 28 28 29 30 32 32 32 32 29 21 14 12 11 12 14 16 18 19 18 18 20 22 25 28 29
5 4 2 2 2 5 7 7 7 7 6 8 8 8 8 7 11 11 8 7 8 11 12 11 11 12 13 12 11 10 10 10 12 13 15 16 18 18 17 18 18 18 18 19 19 20 20 21 22 23 23 24 25 26 25 25 25 24 24 25 26 27 28 29 30 31 32 33 33 33 33 29 21 15 12 11 12 14 16 17 17 17 19 20 23 27 28
6 6 3 2 3 4 2 3 4 1 6 10 10 9 9 7 7 8 9 10 11 11 10 10 11 12 13 13 11 10 9 10 11 13 14 15 16 17 17 17 17 17 18 18 18 19 19 20 20 21 22 22 23 24 24 25 25 25 26 26 27 27 28 29 31 31 32 34 35 34 33 32 28 21 16 14 13 14 14 16 17 18 20 22 23 24 26
6 5 3 3 4 2 2 2 2 6 11 14 15 13 10 9 11 14 15 12 11 13 14 15 16 16 16 14 12 11 10 9 10 11 12 13 14 14 16 17 18 18 18 18 19 20 20 21 21 21 21 22 23 24 24 25 26 26 27 28 28 28 29 30 31 32 33 35 36 35 34 33 32 28 22 17 16 16 16 16 18 19 21 23 23 23 24
5 3 1 3 3 2 3 5 6 7 9 10 11 11 9 7 9 12 13 12 14 17 18 17 18 18 17 16 13 10 10 9 9 11 11 12 13 14 15 17 17 17 17 18 20 20 20 21 21 21 22 22 23 24 25 27 28 28 28 28 28 29 30 30 30 32 34 35 36 36 35 34 35 33 29 24 20 19 19 18 18 19 21 22 24 25 26
3 4 4 3 3 2 1 3 3 4 3 2 3 5 5 5 6 9 12 13 16 17 17 18 20 18 16 14 11 8 9 10 11 12 12 13 14 15 15 15 15 15 16 18 19 19 19 20 21 21 22 22 23 25 27 29 30 31 30 29 29 30 30 30 30 30 31 34 36 36 36 35 35 34 32 29 26 24 22 20 18 17 18 21 24 27 28
2 5 5 4 3 2 3 4 3 2 1 0 1 4 4 4 8 12 14 14 16 17 17 18 18 13 8 7 6 6 8 10 11 12 13 13 13 13 13 14 14 15 16 17 19 19 20 20 20 21 22 23 25 26 28 30 32 33 32 30 29 30 30 30 29 29 29 31 33 35 34 33 33 32 31 29 28 25 22 18 15 13 14 16 19 22 26
3 4 4 4 3 0 3 6 4 2 2 2 2 3 3 5 11 15 17 17 18 18 17 16 12 6 3 4 4 6 9 9 10 11 11 11 11 11 12 13 14 15 16 17 18 20 22 22 21 21 22 24 26 27 28 30 31 33 33 31 29 28 29 29 29 29 28 28 30 31 31 30 29 27 26 25 23 21 18 13 10 7 6 9 11 13 19
4 4 3 2 1 1 3 6 4 2 2 3 3 2 4 9 14 16 17 18 18 18 15 11 5 1 3 7 8 9 10 9 8 9 9 9 10 10 11 13 13 14 16 17 19 21 22 22 21 21 23 25 27 27 28 29 31 32 31 31 29 27 27 28 29 29 27 26 28 29 29 28 27 24 23 22 20 18 15 11 9 10 8 3 4 7 9
5 4 3 2 1 1 3 4 3 3 3 4 2 0 5 14 18 17 17 19 19 17 13 7 4 5 9 13 14 12 9 8 8 9 9 9 9 10 11 12 14 15 16 17 20 21 21 21 21 22 23 25 27 27 27 28 29 29 28 28 29 28 27 27 28 28 26 25 25 26 26 26 26 25 24 23 21 20 17 15 13 15 17 15 11 10 11
3 3 3 3 2 1 2 3 4 4 3 2 1 4 10 17 19 18 19 20 19 16 11 9 11 15 17 18 16 12 9 10 10 10 10 10 10 10 11 12 14 16 16 17 18 19 20 20 20 21 22 24 26 27 27 27 27 26 26 26 27 28 28 28 28 27 25 24 23 22 22 21 21 22 23 23 23 22 20 19 18 18 20 21 19 17 18
2 2 2 3 2 3 5 6 4 2 1 2 8 12 14 16 17 18 19 19 18 16 13 14 18 20 18 16 14 12 11 12 12 11 10 10 10 10 11 13 14 15 16 16 17 17 18 19 19 20 21 22 24 26 26 25 24 24 24 24 24 25 27 28 29 28 27 26 24 23 22 21 20 19 19 18 19 19 19 19 19 20 20 21 21 19 20
1 2 2 1 2 3 5 4 3 2 2 8 15 17 15 14 17 19 18 16 16 15 15 18 20 19 17 15 14 14 13 12 12 10 9 9 10 11 11 12 14 14 15 15 15 15 17 18 19 20 21 22 23 24 25 24 22 22 23 23 24 24 25 26 27 28 28 28 27 26 24 24 24 23 22 21 20 19 18 16 16 17 18 20 20 20 20
2 3 3 2 3 5 5 3 5 8 10 12 16 19 17 14 15 18 18 17 16 15 18 21 19 17 16 16 15 14 14 12 11 10 10 10 11 11 11 12 13 14 15 15 15 15 16 17 18 20 21 22 23 23 23 23 22 21 21 22 24 25 25 25 25 25 26 27 28 28 27 27 27 26 25 25 24 23 22 21 18 16 15 16 18 19 19
6 8 7 6 7 8 9 9 10 11 12 12 15 18 16 12 12 16 19 19 18 18 22 23 20 17 17 17 16 15 14 13 12 11 12 11 11 11 11 12 12 13 13 14 15 16 16 16 17 19 20 21 22 22 21 21 21 21 20 21 23 24 25 25 24 24 24 25 26 27 27 28 28 28 27 27 26 26 26 26 24 20 17 15 13 13 12
4 4 5 6 9 11 12 12 12 12 12 12 12 13 14 13 14 17 19 21 21 22 23 24 22 20 19 18 17 16 14 13 13 12 12 11 11 11 11 11 11 11 12 13 14 15 16 16 16 17 19 20 20 20 20 20 20 20 19 19 21 23 24 25 24 23 23 23 23 24 25 26 26 27 28 28 27 27 27 27 27 25 24 22 18 14 11
4 6 8 10 12 12 11 11 12 12 13 13 14 16 18 18 20 22 23 24 25 24 23 24 23 22 19 18 18 16 15 14 13 12 12 11 11 11 11 11 11 11 10 11 12 14 14 15 16 16 17 18 18 19 20 20 20 20 20 19 19 20 22 23 23 23 22 22 22 22 22 24 25 26 26 26 27 27 27 26 26 26 27 28 27 24 19
7 8 12 14 13 11 9 10 12 12 15 19 21 23 24 25 25 26 25 25 25 24 23 23 23 22 20 18 18 17 15 14 12 11 11 10 10 10 11 11 11 10 9 8 9 11 12 13 14 14 15 16 17 17 19 19 20 20 21 20 20 20 20 21 21 22 22 22 22 21 21 21 22 24 24 24 24 24 24 24 24 24 25 27 28 28 27
5 7 12 12 8 8 9 12 14 16 19 24 26 26 26 26 27 27 26 25 24 23 23 22 22 23 21 19 18 16 14 12 11 10 9 8 8 9 10 11 11 11 9 7 6 8 10 11 12 13 13 14 14 15 16 18 19 20 21 20 21 21 21 20 20 21 21 21 21 21 20 20 20 21 22 22 22 22 22 21 21 22 23 25 25 25 26
6 14 17 11 9 14 16 17 19 21 24 27 28 27 27 28 27 27 28 27 25 24 23 22 22 22 21 19 16 14 12 11 10 9 8 7 8 9 10 10 11 11 10 8 6 7 9 10 11 13 13 14 13 13 14 15 17 19 20 20 21 22 21 19 19 20 20 20 21 20 19 19 18 18 19 20 20 21 21 21 21 20 21 22 23 23 23
12 18 18 13 16 20 20 21 24 26 26 28 29 27 27 27 26 26 27 28 27 27 25 23 22 20 19 17 15 13 11 10 9 8 8 8 9 10 10 10 11 12 11 10 9 9 9 10 12 13 14 15 14 12 12 13 15 17 19 19 20 21 21 18 17 18 19 20 21 20 19 19 18 17 18 18 18 18 19 20 21 21 21 20 20 20 20
19 20 18 20 24 25 24 25 27 26 26 28 28 26 26 26 26 27 29 29 28 27 25 23 21 18 16 15 13 12 11 10 9 9 9 9 9 9 9 10 11 12 12 13 12 11 11 11 12 13 14 15 15 12 11 12 13 15 18 19 19 20 20 18 16 16 18 20 21 20 20 19 18 17 17 17 17 17 17 17 18 19 20 20 19 18 17
25 26 27 28 29 28 28 27 25 25 26 27 28 27 28 29 29 30 29 27 26 24 22 20 18 16 15 13 12 11 10 10 10 10 10 10 9 9 9 10 11 11 13 14 14 13 12 12 11 13 14 15 14 12 11 12 13 13 15 17 18 18 18 17 15 15 16 19 20 20 20 20 19 17 17 16 16 16 16 16 16 16 16 17 17 16 15
28 32 33 29 24 25 27 27 27 28 28 29 30 31 30 30 30 28 26 24 22 20 19 17 16 14 13 12 10 10 9 9 10 11 11 10 10 9 9 9 10 12 14 15 15 14 14 13 13 14 14 14 13 11 10 12 13 13 13 15 16 16 17 16 14 13 14 16 18 20 21 21 20 17 15 14 14 14 14 14 14 14 14 14 14 13 13
30 32 32 28 25 27 30 30 31 31 30 30 32 31 30 29 28 25 23 22 20 18 16 15 13 12 11 10 9 8 8 8 10 11 12 11 10 9 9 9 10 12 14 15 15 15 15 16 16 15 15 14 13 11 9 11 13 13 12 13 14 14 14 15 14 12 13 15 17 18 20 21 22 20 15 12 12 13 12 12 13 13 13 13 13 12 11
27 28 29 31 33 34 33 32 32 31 31 30 30 29 28 27 25 23 21 19 18 16 14 13 11 10 9 8 7 7 7 8 9 11 11 11 10 9 9 9 10 12 13 13 13 14 15 17 18 17 15 14 13 12 10 10 11 11 11 12 13 12 13 13 13 12 13 15 15 16 17 19 22 23 19 13 10 11 11 10 11 12 12 12 12 12 10
27 29 32 34 35 35 35 34 32 31 30 29 28 26 25 24 22 21 19 17 16 14 12 11 10 8 7 7 7 7 6 6 8 9 10 9 9 9 8 8 9 10 11 11 11 13 14 16 18 18 16 15 14 12 11 10 10 10 10 11 12 12 13 13 12 12 13 14 14 14 15 16 20 23 22 15 10 9 10 10 10 11 12 12 12 12 10
32 33 34 34 34 35 34 32 31 30 28 27 25 24 23 21 20 19 17 15 14 12 11 9 9 7 6 6 6 6 5 5 7 7 8 8 8 8 7 6 6 7 8 9 10 12 12 14 17 18 17 15 13 12 11 9 9 9 9 10 11 12 13 13 13 12 12 13 13 12 12 15 17 20 22 18 11 8 8 9 10 11 11 11 12 12 10
33 32 32 33 32 32 30 29 28 27 26 24 23 22 21 20 18 17 15 14 12 11 9 8 7 7 7 6 6 6 5 5 5 5 6 7 7 7 7 6 4 5 7 8 9 10 11 12 14 16 16 14 13 12 11 9 8 8 9 10 11 12 12 13 13 12 11 11 11 10 10 13 16 18 21 20 14 8 6 7 9 11 11 11 12 12 9
32 29 28 29 30 29 28 27 26 26 25 23 22 20 18 17 16 14 12 10 10 9 9 8 7 7 7 6 6 6 5 4 4 4 4 4 5 6 7 7 6 6 7 8 9 9 10 10 12 14 14 14 13 12 11 9 8 8 9 10 11 12 12 13 13 13 12 10 10 9 9 11 14 16 18 19 17 11 7 6 7 8 9 9 10 10 8
32 30 29 30 30 29 28 27 26 24 23 20 19 17 15 13 12 10 9 8 8 8 8 8 8 8 7 7 6 6 5 4 3 2 2 2 3 5 7 7 7 6 6 8 9 9 9 9 11 12 13 13 12 12 10 9 8 8 9 10 11 12 14 14 13 13 12 9 8 8 8 9 11 14 15 17 16 14 11 8 6 6 7 7 8 7 6
28 28 28 28 27 25 25 24 22 21 19 18 16 15 12 10 9 9 8 8 8 8 7 7 7 7 7 7 7 6 5 4 3 1 1 0 2 3 5 6 7 6 5 6 7 8 8 9 9 11 11 11 11 12 11 10 9 9 10 11 12 13 14 14 14 14 13 10 8 8 8 8 8 10 13 14 14 14 13 11 8 6 5 7 8 7 5
24 24 24 24 24 23 21 20 19 18 17 15 13 12 11 10 10 9 8 8 8 8 7 7 6 6 6 6 6 6 6 5 3 3 2 1 1 2 3 5 5 5 4 4 6 7 8 8 9 10 10 10 10 11 11 11 11 11 12 13 14 14 13 12 13 15 16 13 9 7 8 7 7 8 10 13 13 12 12 12 10 7 6 7 8 8 6
22 22 22 22 21 20 19 17 16 15 14 13 12 12 12 11 10 8 8 8 9 8 7 7 6 6 6 5 5 6 6 5 5 4 3 1 1 1 2 3 4 4 5 5 5 6 8 9 9 9 9 9 9 10 11 11 11 11 13 15 16 16 14 12 12 15 18 14 9 7 8 8 8 7 7 9 11 11 10 10 11 10 9 9 10 10 9
22 22 21 20 20 19 18 16 15 15 14 14 15 14 13 11 10 9 9 10 9 9 8 8 7 6 6 6 6 6 6 6 5 4 3 2 2 2 3 4 4 5 5 6 6 7 8 9 9 9 9 8 9 10 11 11 11 12 12 14 16 17 15 12 12 14 16 12 7 6 9 9 8 7 7 7 9 10 9 8 9 9 9 10 10 11 10
23 22 21 20 19 18 17 16 16 17 17 16 16 15 13 11 9 9 9 10 10 9 9 8 6 5 5 5 5 5 5 4 3 2 3 4 4 5 5 5 5 5 6 7 7 8 8 9 9 9 8 8 9 10 10 9 9 10 12 13 15 16 16 14 11 11 11 8 6 7 9 9 8 8 8 8 9 9 9 8 7 7 8 9 10 11 10
23 22 21 20 19 18 17 18 18 18 17 17 16 14 12 11 9 8 9 9 9 8 7 6 5 4 4 4 3 3 4 4 4 3 3 3 4 5 6 6 6 6 7 8 9 9 9 10 10 9 8 8 8 9 9 8 8 10 11 13 15 16 16 15 12 9 8 6 6 8 9 9 9 9 9 10 10 10 9 8 7 6 7 8 8 9 9
23 22 21 20 19 18 18 19 18 18 18 17 14 12 10 10 9 8 8 9 8 7 6 5 4 4 5 5 5 5 5 5 5 3 3 3 4 5 6 6 6 7 8 9 9 9 10 10 10 9 8 7 6 7 8 8 9 10 11 13 15 16 17 16 13 10 8 8 8 9 10 10 10 10 10 11 12 11 10 10 8 7 7 8 8 7 8
23 22 20 20 19 18 19 19 19 18 18 16 14 11 10 9 8 7 7 7 7 6 6 5 5 5 6 6 6 6 7 6 6 5 5 5 6 7 7 6 7 8 8 8 8 8 8 8 9 8 7 6 6 7 8 9 9 10 11 13 15 17 18 17 15 11 9 9 9 10 10 9 10 11 11 12 12 12 12 11 9 7 7 8 8 8 8
23 22 20 18 18 18 20 20 19 18 17 16 14 12 11 10 9 7 7 6 6 6 5 5 5 5 5 6 6 6 7 7 6 6 7 7 7 7 6 6 7 7 7 7 7 7 7 7 7 7 7 6 6 7 8 10 10 11 12 13 15 16 18 18 15 12 10 9 9 10 11 11 11 12 12 12 12 13 13 11 8 6 5 6 7 8 8
24 22 20 18 18 19 21 20 18 18 17 16 15 14 13 11 9 7 6 6 6 5 4 4 4 4 4 4 4 5 5 5 6 6 6 6 6 6 6 6 6 6 7 7 7 7 6 7 6 6 6 6 6 8 9 11 11 12 12 13 14 15 17 17 15 12 10 9 9 9 10 11 12 12 11 10 11 13 13 11 8 6 5 5 6 6 6
22 20 19 18 20 21 21 19 18 17 17 16 16 15 14 12 10 8 7 7 6 5 4 4 4 4 4 4 4 4 5 5 5 5 5 5 5 6 7 7 7 7 8 8 8 7 6 6 6 5 6 6 7 9 11 11 12 13 13 13 13 14 15 17 15 12 10 10 10 9 9 9 10 10 8 8 10 12 12 13 13 9 6 5 6 5 4
20 20 20 20 21 21 19 18 17 17 17 17 17 17 15 13 11 9 8 7 6 4 3 4 5 5 5 5 5 5 5 6 6 6 6 6 7 7 8 8 9 10 10 10 9 9 7 6 6 6 7 7 9 10 11 12 13 13 13 12 12 12 14 15 15 13 12 12 11 10 9 8 8 7 6 7 10 11 12 14 14 8 4 5 4 3 1
21 21 21 20 19 19 19 18 18 18 18 18 17 17 16 14 12 10 9 7 5 4 4 4 4 4 4 5 5 5 6 6 6 7 7 8 8 9 10 10 11 11 11 10 10 9 8 7 6 7 7 8 9 10 11 12 13 13 12 12 12 12 13 14 15 14 14 13 12 11 9 8 7 6 6 8 10 11 12 13 11 5 5 6 5 3 2
21 21 20 19 19 19 19 19 19 19 18 17 15 15 14 13 12 11 10 8 6 5 5 5 5 5 5 6 6 6 6 6 6 7 8 9 10 10 10 10 10 10 10 10 10 9 9 8 8 8 9 9 10 10 11 13 14 14 13 12 12 12 12 13 13 14 14 13 12 11 9 8 7 7 8 9 10 11 12 13 11 5 4 6 6 6 4
20 20 20 18 18 19 20 20 19 18 17 15 14 13 13 13 12 11 11 9 8 6 6 6 6 6 6 6 6 7 7 8 8 9 10 10 9 9 8 8 8 8 8 8 8 9 9 9 9 10 10 11 12 12 14 14 15 15 14 13 12 12 12 11 12 12 13 13 13 11 9 8 8 8 9 10 11 11 11 12 11 7 3 3 6 8 8
21 21 20 19 18 18 19 19 17 16 16 14 14 13 13 13 13 12 11 9 7 6 6 6 7 7 7 7 7 7 8 9 10 10 10 9 8 7 6 6 6 6 6 7 7 8 9 9 10 11 12 12 13 15 16 16 16 15 14 13 12 11 11 10 10 11 11 12 12 11 9 9 9 9 10 10 10 10 10 11 11 8 6 6 8 9 9
21 21 20 18 17 17 17 16 15 15 15 14 13 12 13 13 12 11 10 9 7 6 6 6 7 6 6 7 8 9 9 10 10 9 8 7 6 5 5 4 4 4 5 5 6 7 8 9 10 11 12 13 14 14 15 15 15 14 14 13 11 11 10 9 9 9 10 10 10 10 9 8 8 8 10 10 10 10 10 11 11 8 7 8 10 9 5
20 19 18 17 17 17 17 16 15 16 15 14 12 12 13 13 12 11 10 9 7 6 6 6 6 6 6 7 7 8 8 8 7 6 6 5 5 5 5 5 5 5 5 5 5 6 7 7 8 9 10 10 11 11 12 12 12 11 11 11 10 10 10 9 9 9 9 9 9 9 9 8 8 8 10 11 12 12 11 10 10 9 7 8 9 8 5
Wind_Direction
68 74 83 84 88 88 76 67 56 41 43 62 81 76 30 33 131 139 145 146 141 136 134 126 120 117 113 107 98 91 88 86 81 77 74 70 63 59 56 52 49 47 44 42 39 36 35 34 35 37 36 36 36 34 31 28 24 21 18 15 15 17 17 17 16 14 14 13 9 359 339 319 304 291 277 264 259 259 258 253 251 252 251 244 232 224 223
63 66 80 86 91 89 73 61 57 59 67 75 83 87 78 75 89 114 130 128 115 113 120 113 110 112 109 103 95 88 86 83 79 77 73 69 65 62 57 53 51 49 48 46 42 39 36 34 33 34 34 34 34 33 31 28 25 23 20 16 16 18 18 18 16 15 15 14 12 8 356 333 314 299 284 270 260 260 261 259 255 255 255 247 236 227 223
61 64 84 91 91 89 76 60 51 57 69 73 76 82 81 84 98 113 117 112 103 107 112 109 110 108 102 95 87 83 84 82 79 77 72 68 67 63 58 55 52 50 51 49 44 40 37 33 31 30 29 29 29 29 29 28 26 23 20 19 18 19 19 18 16 15 15 14 12 10 6 354 334 318 303 287 275 268 265 264 262 263 263 254 239 228 222
78 81 96 95 94 90 76 54 39 40 55 67 65 65 75 110 125 125 120 116 122 127 117 108 104 101 95 87 84 85 85 80 78 75 69 66 66 62 58 55 51 49 49 47 44 40 37 33 30 27 26 25 25 26 26 26 25 23 21 21 20 20 19 18 16 15 14 14 13 11 9 3 351 335 317 298 288 281 275 270 268 272 276 268 250 236 225
121 176 144 70 140 121 83 40 18 27 70 88 75 57 60 102 132 135 133 132 129 127 121 109 102 100 92 84 85 90 87 82 79 75 72 69 67 63 58 54 50 48 47 45 42 38 35 32 29 26 24 22 22 24 24 24 24 24 25 24 23 22 21 19 18 16 13 13 12 11 10 7 360 346 328 308 292 287 283 278 276 280 284 281 269 257 243
145 191 237 266 197 162 92 345 319 333 107 98 83 64 54 70 103 109 114 123 123 121 118 112 107 102 95 92 93 93 90 86 82 77 75 71 68 65 61 57 53 49 46 43 40 36 33 30 26 24 22 21 22 23 23 23 23 24 26 26 26 24 23 22 20 17 14 12 11 11 11 10 7 357 342 327 312 300 291 284 283 285 284 282 278 268 253
139 180 225 184 164 126 37 30 60 106 112 99 86 71 58 76 105 111 112 115 114 112 111 110 107 104 102 100 94 88 86 84 82 80 74 69 67 64 61 60 57 52 47 43 39 36 33 30 28 27 25 24 26 27 27 27 26 26 26 26 27 26 25 24 21 18 15 12 10 11 12 12 11 6 357 346 333 323 314 302 295 288 280 274 272 266 250
131 151 177 157 135 64 68 97 105 116 117 104 91 74 55 69 103 114 114 112 112 113 114 113 113 111 106 97 87 83 84 82 82 81 75 71 70 68 66 64 59 54 49 46 43 40 37 35 35 34 32 30 32 33 33 32 30 28 27 27 26 26 26 26 24 20 16 13 12 13 14 15 14 11 7 2 352 341 332 323 311 294 274 262 259 258 247
129 118 85 94 122 119 112 129 149 151 126 88 101 91 69 70 97 112 117 119 120 120 121 123 124 120 108 91 79 80 86 87 86 84 82 81 77 74 72 66 61 56 51 50 49 45 42 42 41 39 37 36 37 37 36 36 34 30 28 27 27 26 26 26 26 23 19 16 15 15 16 18 17 13 11 8 3 354 343 332 322 299 270 252 246 246 242
129 116 100 114 148 197 203 179 175 161 120 350 125 108 98 107 124 127 126 124 126 129 133 137 138 133 111 86 80 94 98 95 92 88 86 84 80 75 71 64 59 55 52 52 52 49 48 47 43 40 38 37 39 39 37 37 35 32 29 28 28 27 26 26 26 25 22 19 18 19 20 21 19 17 15 11 5 358 349 339 330 309 276 256 245 239 233
144 122 116 156 172 199 164 158 156 145 150 201 196 136 133 145 145 141 135 131 136 143 147 151 155 154 118 109 130 129 115 105 98 92 86 82 77 71 65 60 54 50 50 53 54 51 50 48 42 38 36 37 38 37 36 36 35 33 30 28 29 29 27 26 26 26 26 24 22 24 26 26 24 22 22 19 12 3 357 356 2 354 307 268 251 233 222
131 106 98 142 159 22 134 148 146 130 141 184 196 178 154 155 155 151 144 143 147 152 153 154 153 106 115 141 152 143 126 113 99 91 84 78 74 72 69 62 55 52 53 54 53 51 49 45 41 38 36 36 36 35 35 35 34 33 31 30 30 31 29 28 28 27 29 30 30 31 33 33 31 30 30 30 29 27 26 34 54 66 71 98 199 190 185
105 99 102 113 84 90 149 143 134 136 151 174 194 89 132 148 153 155 152 150 151 153 152 141 98 89 117 133 138 135 125 108 91 83 79 74 73 73 71 64 59 56 55 54 52 50 46 42 39 37 36 36 36 35 34 33 32 31 30 30 32 34 33 31 30 29 29 31 32 35 37 38 38 40 42 41 40 42 47 56 71 82 84 88 107 121 121
98 86 94 106 99 143 155 124 121 146 164 167 96 97 131 145 152 157 157 154 151 148 139 120 114 118 122 125 126 124 114 100 93 91 87 82 78 76 70 63 60 58 55 53 51 47 41 38 36 36 36 36 36 36 36 34 31 29 28 29 31 34 37 36 34 32 29 26 25 26 26 26 28 34 41 46 47 48 48 51 59 71 77 82 90 96 96
103 88 111 133 133 147 151 138 132 167 267 128 124 123 130 141 147 153 154 151 150 148 136 125 126 125 124 122 119 115 109 101 98 95 88 81 75 71 66 60 58 57 54 50 47 43 38 35 34 35 35 35 35 36 37 36 34 31 30 30 30 32 36 37 37 37 34 30 25 23 21 20 20 21 24 29 37 44 47 47 51 55 58 65 75 82 84
196 127 142 139 62 111 145 150 138 130 124 136 138 133 131 139 149 154 152 148 151 152 140 132 130 126 124 123 119 114 109 104 101 95 85 79 73 68 64 58 54 52 49 45 44 43 40 37 36 35 35 35 35 36 36 35 34 33 32 32 32 32 32 34 35 36 36 35 32 29 26 27 29 31 30 26 26 32 37 42 48 52 51 51 56 64 70
84 77 95 98 70 90 114 115 111 116 120 133 141 139 134 137 150 156 152 148 153 154 141 133 130 126 125 123 118 115 112 107 102 94 84 79 75 70 66 60 54 50 45 43 43 44 43 40 37 35 35 36 37 36 34 32 31 32 32 31 32 32 31 31 32 32 33 35 35 33 31 31 33 34 34 33 33 34 36 37 38 44 48 47 47 52 57
98 63 65 91 91 89 97 103 109 115 120 129 137 137 134 133 144 154 154 151 153 150 139 133 130 127 127 123 118 116 113 106 101 95 87 82 78 74 68 60 53 49 45 43 43 44 44 40 36 34 34 35 36 35 32 30 29 30 31 31 30 31 31 30 30 30 31 32 33 34 34 35 36 37 36 35 37 38 39 40 40 40 44 47 45 45 51
133 74 76 98 100 101 105 107 110 114 117 124 130 130 129 130 138 146 147 144 143 140 136 132 129 126 126 123 119 117 112 107 103 96 89 83 77 70 63 54 50 46 42 40 39 40 40 38 34 32 31 33 34 33 31 30 29 28 27 28 28 29 30 29 28 28 30 31 32 33 34 35 37 38 39 39 40 41 42 43 45 46 49 52 52 50 53
106 110 115 108 99 101 108 112 117 121 120 120 120 121 124 128 131 134 134 133 133 134 133 130 126 124 124 122 119 116 112 108 103 94 87 81 71 64 56 47 42 40 38 37 36 34 34 33 30 29 27 28 29 29 29 29 29 27 25 25 26 26 26 27 27 26 26 27 29 30 32 35 36 36 36 37 39 41 43 45 47 49 52 54 54 54 56
99 107 124 120 102 93 101 112 119 125 124 122 120 120 124 126 127 128 128 129 130 131 129 128 126 124 123 120 117 114 110 104 99 90 82 74 63 56 47 35 27 25 29 34 35 32 30 27 24 22 21 21 21 23 24 24 24 25 24 24 25 25 23 24 26 26 24 24 26 26 26 31 34 34 33 34 36 39 42 44 48 51 55 56 56 55 56
138 151 155 149 121 114 131 130 127 129 129 126 124 124 125 126 126 128 127 127 128 128 126 126 125 122 120 118 114 111 106 100 93 84 74 64 54 45 37 28 23 23 28 35 39 36 31 23 18 18 17 16 15 16 17 18 20 20 20 21 22 22 22 23 26 27 26 24 25 26 25 26 30 33 33 34 37 40 42 44 47 50 55 58 59 58 58
153 161 162 154 123 128 140 139 134 134 132 128 127 127 127 127 129 130 129 128 129 128 126 125 122 118 117 115 112 107 102 94 85 74 64 57 48 40 34 31 29 33 40 47 49 42 34 25 22 22 19 14 10 9 10 13 17 18 18 18 19 19 21 23 26 28 30 28 27 28 28 27 28 30 31 34 37 40 43 46 47 48 52 56 58 60 61
125 146 155 144 126 130 138 139 137 136 134 132 130 129 129 130 131 131 130 129 129 128 127 126 123 118 116 113 109 102 94 83 72 62 54 47 41 36 34 34 34 38 45 52 53 49 41 35 32 27 19 13 11 10 10 11 16 19 19 19 18 17 19 22 26 30 32 31 30 30 32 30 28 26 27 30 33 36 41 46 48 49 49 52 55 58 60
136 142 146 139 131 131 134 136 136 136 135 133 131 129 131 131 130 129 128 127 126 125 126 126 124 120 116 111 105 97 87 77 68 61 54 45 37 35 36 36 37 43 51 56 55 50 44 40 33 23 15 14 17 21 20 15 14 18 20 19 17 16 18 23 28 32 33 32 32 32 32 30 28 24 23 24 27 28 31 38 46 50 50 49 51 53 56
141 141 138 132 128 130 133 135 135 136 135 132 129 129 130 130 129 129 127 126 126 125 124 124 123 120 116 110 102 93 84 77 69 62 54 46 39 39 42 43 46 56 62 61 56 49 41 35 24 14 11 15 20 26 26 17 14 19 22 17 14 17 21 25 29 33 33 32 31 30 28 26 24 21 18 17 18 21 22 25 33 42 46 47 48 50 52
139 140 135 128 128 135 138 137 136 137 135 132 130 130 130 130 131 131 130 130 130 129 127 127 125 121 117 110 103 97 90 80 70 59 51 45 43 45 48 52 59 68 69 62 54 46 36 26 17 12 13 16 20 25 26 19 19 25 26 17 14 19 23 25 29 31 30 29 27 26 24 22 20 18 15 13 12 14 16 18 21 27 33 38 42 45 48
137 141 138 135 138 142 140 136 135 135 134 133 132 132 132 134 134 135 135 136 136 135 134 133 129 124 121 116 110 104 94 81 68 56 48 45 46 47 52 62 71 74 70 63 55 45 34 26 21 17 16 18 20 24 27 24 22 27 27 20 16 19 24 26 26 25 22 22 23 22 21 19 17 15 12 10 11 10 7 8 14 19 22 26 32 36 40
137 141 140 137 138 138 137 136 136 136 136 136 136 136 137 139 140 141 142 142 142 142 142 140 136 133 129 124 119 112 101 84 68 57 50 47 49 52 60 73 77 74 68 62 53 43 33 27 24 20 18 18 18 19 25 29 26 25 27 23 17 15 19 23 23 19 15 14 14 15 15 17 17 15 10 5 7 8 2 356 3 11 13 14 17 19 23
134 135 134 134 136 137 138 139 140 141 141 142 143 144 145 146 147 149 151 151 150 150 149 148 147 143 134 129 128 125 116 96 74 60 52 48 51 56 66 77 78 71 62 53 42 35 29 23 21 19 18 17 16 16 20 27 28 26 24 21 15 12 12 13 12 8 4 5 6 8 9 12 15 15 12 6 3 8 4 352 349 359 4 6 5 6 9
133 133 135 137 139 141 141 143 145 147 147 149 151 152 153 155 155 156 158 157 156 157 159 158 156 148 141 143 148 146 134 108 82 66 53 48 51 55 62 71 73 60 47 36 27 23 20 16 16 15 15 15 17 16 17 23 28 28 23 18 15 12 9 7 5 359 352 352 356 0 5 9 11 13 13 10 5 8 9 356 345 351 360 3 3 1 3
135 135 138 142 144 146 147 149 152 153 154 156 157 156 157 158 159 160 159 159 162 169 170 163 156 154 156 159 160 156 144 120 93 73 55 44 44 45 47 52 54 42 32 25 19 16 13 11 10 11 12 14 16 17 19 23 25 24 20 13 10 8 5 3 2 357 347 343 346 352 3 10 10 10 13 13 12 11 8 358 355 359 5 8 5 0 3
141 141 146 151 153 154 155 156 157 158 159 160 160 159 159 159 160 161 162 164 170 177 176 167 164 169 171 167 163 162 155 135 108 87 62 39 30 31 33 35 39 40 32 25 22 19 14 9 7 8 10 13 15 17 22 26 25 19 13 6 1 358 355 353 354 352 346 342 341 344 356 8 10 8 10 13 16 18 12 357 353 355 357 358 353 350 1
148 148 152 155 155 155 156 159 161 162 163 163 164 164 163 163 163 166 170 176 179 180 177 173 175 179 177 171 171 171 162 145 127 105 79 36 15 18 24 28 32 37 30 19 18 18 14 9 8 6 7 11 14 16 19 22 18 8 359 353 349 346 344 345 348 349 348 345 341 337 341 357 7 8 8 10 16 21 19 7 354 348 351 351 342 336 350
151 150 151 153 153 152 153 156 159 161 163 165 166 167 168 168 168 169 173 179 180 178 174 170 172 176 178 176 175 173 164 154 154 168 171 278 351 6 19 25 30 35 30 12 4 4 5 5 6 5 4 5 7 10 12 12 8 1 353 348 344 340 338 342 349 353 354 352 342 332 330 338 353 4 6 5 9 17 21 18 9 357 353 351 343 338 343
159 158 160 161 160 159 159 158 158 161 163 163 165 168 170 168 164 163 168 171 170 167 166 166 167 173 177 179 178 174 169 168 177 188 193 208 318 8 17 17 18 24 23 8 353 351 352 354 356 360 1 0 358 359 0 1 0 360 359 356 352 347 342 340 346 354 356 352 340 330 329 330 336 353 3 1 360 8 20 23 18 5 353 354 356 360 9
167 167 168 168 170 172 172 169 168 168 167 167 169 169 166 161 157 157 160 161 159 158 158 156 155 159 165 171 174 169 162 161 167 173 180 194 218 359 6 4 1 1 358 350 341 336 337 341 345 349 353 356 354 351 350 349 347 347 349 350 351 351 348 339 338 347 353 352 342 331 331 329 328 338 353 354 352 356 10 22 24 21 20 21 16 10 6
170 170 171 172 176 178 179 180 181 178 175 175 175 170 164 158 157 159 159 156 154 156 157 152 143 135 134 138 145 147 145 148 158 174 204 239 274 307 326 338 340 334 327 328 329 326 325 331 336 337 339 346 350 347 344 343 341 339 340 342 344 346 347 341 336 344 353 359 360 351 344 338 332 333 337 340 342 346 357 12 20 20 20 20 10 356 346
174 176 178 180 182 183 185 187 186 182 179 177 174 168 162 158 159 165 166 161 159 161 164 163 160 151 144 145 146 146 153 167 184 214 252 274 294 310 317 322 321 311 303 310 320 322 320 323 329 331 329 331 339 342 344 346 346 345 346 345 344 346 347 343 336 340 351 3 10 2 355 350 345 340 333 326 327 334 343 355 6 7 3 5 8 3 354
182 183 185 187 189 190 190 188 184 180 179 178 173 168 165 163 164 172 180 180 177 175 174 175 180 180 184 191 186 174 188 211 229 250 274 288 302 314 319 319 311 299 296 303 313 318 318 319 323 325 321 321 332 344 351 358 0 359 358 357 354 351 350 345 337 329 330 335 340 347 349 349 346 342 335 328 325 324 326 334 345 350 346 351 7 10 1
191 190 191 192 194 194 191 188 184 180 178 177 176 173 169 164 164 175 187 192 194 193 190 191 194 196 202 208 203 197 211 230 245 260 272 282 295 307 312 309 301 298 302 308 312 317 319 319 319 318 314 315 328 343 353 359 360 358 359 359 357 354 352 349 341 326 309 303 310 323 334 339 338 335 332 331 328 322 317 318 320 323 327 334 341 344 345
201 200 199 199 199 197 192 187 184 181 179 177 177 177 173 166 163 166 170 175 185 197 204 205 205 207 213 217 217 221 233 246 254 258 261 270 285 296 300 297 295 301 308 312 315 320 321 319 316 312 304 303 318 335 345 350 350 347 348 351 351 350 349 349 345 335 314 296 293 301 312 322 327 326 325 325 325 323 320 317 310 303 313 327 330 326 328
207 208 208 206 204 198 191 186 184 181 178 177 178 180 179 174 170 168 166 168 180 197 209 212 214 220 227 230 232 238 244 248 251 255 262 273 284 289 289 289 295 302 310 314 318 324 327 324 317 306 295 295 310 326 334 338 338 337 338 340 344 345 345 345 346 344 330 310 296 294 296 302 312 319 319 320 323 327 329 323 306 291 301 320 325 323 326
211 215 218 214 203 192 186 184 183 181 179 179 180 183 185 185 184 183 178 177 181 188 196 204 214 223 227 228 232 239 244 247 253 262 271 279 281 279 279 285 294 303 311 315 320 328 336 333 322 302 289 294 308 318 325 329 332 332 333 333 335 340 344 345 346 348 344 334 323 312 302 298 304 311 315 320 329 336 338 332 316 293 285 302 314 316 320
209 212 209 200 188 183 184 186 186 185 184 183 184 188 193 196 195 192 186 182 183 188 200 217 231 238 239 239 243 247 250 253 260 266 271 273 271 271 276 286 296 303 309 313 315 320 327 329 320 300 288 293 305 312 318 324 328 330 330 329 329 335 342 346 348 350 350 344 337 327 317 311 313 314 316 323 332 336 338 335 327 308 271 269 297 313 322
194 190 185 182 182 185 188 189 187 186 187 187 189 194 199 201 199 195 190 188 191 204 225 237 244 246 245 247 250 252 253 257 261 264 265 266 269 273 279 287 294 300 304 307 307 307 309 314 312 302 294 296 302 308 314 321 326 329 329 327 326 330 337 344 349 351 350 346 341 333 324 321 323 323 318 319 322 325 331 337 336 319 251 242 280 311 4
181 179 180 184 187 188 187 187 187 189 190 191 194 199 202 203 201 197 194 195 208 231 243 242 241 242 244 249 254 256 259 263 266 266 266 270 275 280 283 287 291 296 300 301 300 300 299 299 303 304 303 303 307 310 313 319 324 328 328 327 325 325 330 339 347 349 346 343 344 343 334 324 318 312 309 312 318 324 334 342 341 317 234 228 246 241 176
182 183 184 187 189 189 188 189 190 191 192 194 197 201 204 206 204 202 203 211 228 243 250 251 251 252 255 261 263 261 261 262 264 269 274 279 282 283 285 288 291 296 298 298 297 296 293 289 291 297 302 305 307 308 309 312 315 318 320 321 321 320 322 330 341 346 345 340 338 336 331 325 322 320 318 319 322 327 335 341 340 315 231 217 224 227 215
184 185 184 185 189 190 190 190 191 193 194 194 195 198 203 205 204 205 211 222 234 244 251 253 254 254 258 262 261 260 261 263 268 275 279 282 282 284 285 287 289 292 296 297 295 292 288 287 288 292 297 300 301 301 302 304 306 308 309 311 313 312 312 319 331 340 344 342 337 329 318 310 312 319 324 324 322 321 325 330 332 325 287 239 240 239 232
187 187 187 187 189 190 191 193 195 197 195 192 190 194 199 203 206 211 218 224 231 239 247 249 251 255 259 262 264 267 270 272 277 280 280 278 279 281 282 281 283 287 291 293 291 287 286 286 288 289 293 295 296 296 297 299 300 300 300 302 305 304 302 309 323 333 339 343 344 339 327 311 306 310 319 324 324 323 326 326 321 311 299 288 275 258 240
192 193 193 193 194 195 197 199 200 197 194 193 194 197 200 202 208 215 219 218 220 229 241 249 254 257 261 263 267 270 271 274 277 280 277 274 274 276 276 280 288 294 294 295 295 294 293 294 295 297 298 299 300 301 302 302 300 297 295 295 297 296 292 297 311 323 331 339 346 349 347 340 328 323 324 325 321 318 321 325 322 310 291 284 288 290 284
196 198 199 199 199 199 200 201 200 198 197 196 197 199 199 200 204 209 211 211 215 229 243 251 254 256 257 260 260 262 264 269 272 274 271 267 269 274 281 289 295 298 300 303 307 310 311 312 312 314 315 316 316 317 318 317 315 310 302 297 293 289 284 285 295 306 316 327 338 344 348 353 350 342 336 333 327 318 309 306 311 316 300 274 274 292 309